Starlink 30708

operational
NORAD ID: 57944 Int'l Des: 2023-148 Owner: SPXS Country: US Constellation: starlink
LEOCIRCULAR

About Starlink 30708

Description loading...

Live Position

Loading 3D Globe...

Upcoming Passes

Altitude History

Altitude vs Time

uPlot chart will show altitude changes over time

Two-Line Element Set

1 57944U 23148K 25304.17662382 .00001942 00000-0 77681-4 0 9995
2 57944 53.1610 265.8355 0001476 125.3894 234.7245 15.30205638118595
Epoch: Oct 31, 2025 • Age: 7 hours

Current Status

Altitude 479.9 km
Velocity 7.63 km/s
Sub-Earth Point 47.44°N, 116.82°E
Launch Date Sep 25, 2023
Age 2 years
Type internet

Technical Details

Classification Payload
Mass 730.00 kg
Dry Mass 700.00 kg
Total Mass 730.00 kg
Length 0.30 m
Diameter 4.10 m
Span 29.00 m
Shape Box + pan
Manufacturer SPXS
Bus Type Starlink V2M
Phase Status In Orbit
Owner/State SPXS/US

Large Constellations

Loading constellations...